Location: *
(50.5492°N, 7.7469°E)
Time: 19:43:31
(UTC+00:00)

STARLINK-66 - Pass Details

Date: 21 October 2019
Orbit: 548 x 552 km, 53.0° (Epoch: 21 November)

Event Time Altitude Azimuth Distance (km) Brightness Sun altitude
Rises 17:04:55 0° 265° (W) 2,715 9.8 -6.9°
Reaches altitude 10° 17:07:10 10° 269° (W) 1,823 8.0 -7.3°
Maximum altitude 17:11:17 65° 351° (N) 608 3.8 -7.9°
Enters shadow 17:15:15 11° 74° (ENE) 1,767 5.5 -8.5°
